ROSSMERE Weather Reports


Display with metric or nautical units.
time (UTC)temp
F
wind
direction
speed
MPH
gust
MPH
rain 1hr
in
rain 24hr
in
rain mn
in
humidity
%
barometer
mb
20260510081550 32 315 0.0 0.0 0.00 0.00 0.00 84 1013.3
20260510080050 33 315 0.0 2.0 0.00 0.00 0.00 84 1013.2
20260510074549 32 303 0.0 3.0 0.00 0.00 0.00 85 1013.2
20260510073049 31 303 0.0 0.0 0.00 0.00 0.00 85 1013.2
20260510071552 31 303 0.0 0.0 0.00 0.00 0.00 85 1013.0
20260510070044 30 303 0.0 0.0 0.00 0.00 0.00 83 1013.0
20260510064541 31 303 0.0 0.0 0.00 0.00 0.00 81 1012.9
20260510063038 32 303 0.0 0.0 0.00 0.00 0.00 79 1012.9
20260510061540 33 303 0.0 0.0 0.00 0.00 0.00 80 1012.8
20260510060036 33 302 0.0 1.0 0.00 0.00 0.00 79 1012.7
20260510054535 33 302 0.0 3.0 0.00 0.00 0.00 81 1012.7
20260510053051 32 297 0.0 0.0 0.00 0.00 0.00 81 1012.6
20260510051530 32 297 0.0 0.0 0.00 0.00 0.00 80 1012.5
20260510050034 33 308 0.0 0.0 0.00 0.00 0.00 80 1012.3
20260510044526 33 307 0.0 0.0 0.00 0.00 0.00 79 1012.2
20260510043038 34 307 0.0 0.0 0.00 0.00 0.00 78 1012.0
20260510041526 34 307 0.0 0.0 0.00 0.00 0.00 77 1011.9
20260510040033 35 29 0.0 1.0 0.00 0.00 0.00 76 1011.9
20260510034517 35 37 0.0 1.0 0.00 0.00 0.00 74 1011.8
20260510033016 36 68 0.0 1.0 0.00 0.00 0.00 73 1011.7
20260510031520 37 72 0.0 3.0 0.00 0.00 0.00 71 1011.4
20260510030013 37 292 0.0 2.0 0.00 0.00 0.00 71 1011.2
20260510024511 37 345 0.0 2.0 0.00 0.00 0.00 69 1011.1
20260510023009 37 279 0.0 4.0 0.00 0.00 0.00 68 1010.9
20260510021521 38 332 0.0 5.0 0.00 0.00 0.00 67 1010.7
20260510020007 38 304 0.0 5.0 0.00 0.00 0.00 67 1010.5
20260510014506 38 281 0.0 5.0 0.00 0.00 0.00 66 1010.4
20260510013004 39 316 0.0 5.0 0.00 0.00 0.00 66 1010.2
20260510011502 39 323 0.0 5.0 0.00 0.00 0.00 64 1010.0
20260510010106 39 294 1.0 5.0 0.00 0.00 0.00 63 1009.8
20260510004601 40 313 1.0 9.0 0.00 0.00 0.00 61 1009.6
20260510003059 40 286 3.0 8.0 0.00 0.00 0.00 60 1009.6
20260510001557 41 333 2.0 10.0 0.00 0.00 0.00 60 1009.4
20260510000101 41 283 4.0 8.0 0.00 0.00 0.00 60 1009.4
20260509234555 41 300 3.0 14.0 0.00 0.00 0.00 60 1009.2
20260509233056 42 276 2.0 12.0 0.00 0.00 0.00 61 1008.9
20260509231553 42 5 4.0 12.0 0.00 0.00 0.00 61 1008.9
20260509230055 43 30 4.0 10.0 0.00 0.00 0.00 57 1008.5
20260509224549 44 297 2.0 10.0 0.00 0.00 0.00 56 1008.3
20260509223048 44 270 4.0 11.0 0.00 0.00 0.00 55 1008.1
20260509221546 44 218 3.0 15.0 0.00 0.00 0.00 55 1008.1
20260509220045 43 241 4.0 13.0 0.00 0.00 0.00 56 1007.9
20260509214558 43 303 3.0 8.0 0.00 0.00 0.00 64 1007.8
20260509213043 41 288 3.0 16.0 0.00 0.00 0.00 66 1007.6
20260509211540 44 313 3.0 11.0 0.00 0.00 0.00 61 1007.2
20260509210043 42 192 5.0 9.0 0.00 0.00 0.00 66 1007.3
20260509204542 40 301 1.0 7.0 0.00 0.00 0.00 70 1007.1
20260509203037 41 283 3.0 9.0 0.00 0.00 0.00 69 1006.9
20260509201536 40 262 3.0 9.0 0.00 0.00 0.00 73 1006.8
20260509200038 39 276 2.0 6.0 0.00 0.00 0.00 76 1006.8
20260509194534 44 295 4.0 12.0 0.00 0.00 0.00 58 1006.6
20260509193032 44 304 2.0 18.0 0.00 0.00 0.00 56 1006.0
20260509191542 43 287 5.0 12.0 0.00 0.00 0.00 60 1006.2
20260509190030 44 254 4.0 7.0 0.00 0.00 0.00 57 1005.8
20260509184535 43 261 3.0 11.0 0.00 0.00 0.00 57 1005.5
20260509183031 43 309 3.0 10.0 0.00 0.00 0.00 56 1005.4
20260509181523 43 205 4.0 10.0 0.00 0.00 0.00 58 1005.4
20260509180022 43 339 3.0 10.0 0.00 0.00 0.00 58 1005.3
20260509174523 44 360 1.0 9.0 0.00 0.00 0.00 57 1005.0
20260509173016 42 304 5.0 14.0 0.00 0.00 0.00 58 1004.9
20260509171514 42 15 5.0 13.0 0.00 0.00 0.00 58 1004.5
20260509170014 42 298 3.0 9.0 0.00 0.00 0.00 59 1004.5
20260509164510 42 339 0.0 12.0 0.00 0.00 0.00 63 1004.4
20260509163011 41 286 2.0 6.0 0.00 0.00 0.00 65 1004.2
20260509161505 40 73 2.0 7.0 0.00 0.00 0.00 69 1004.1
20260509160004 40 322 3.0 9.0 0.00 0.00 0.00 69 1003.9
20260509154502 39 348 2.0 9.0 0.00 0.00 0.00 75 1003.9
20260509153001 39 263 2.0 9.0 0.00 0.00 0.00 75 1003.6
20260509151600 39 301 3.0 7.0 0.00 0.00 0.00 78 1003.5
20260509150058 38 63 2.0 12.0 0.00 0.00 0.00 77 1003.3
20260509144556 39 11 4.0 13.0 0.00 0.00 0.00 70 1003.1
20260509143054 40 17 1.0 7.0 0.00 0.00 0.00 69 1002.7
20260509141552 39 282 3.0 8.0 0.00 0.00 0.00 68 1002.5
20260509140049 39 328 3.0 8.0 0.00 0.00 0.00 67 1002.2
20260509134544 38 355 1.0 10.0 0.00 0.00 0.00 68 1002.0
20260509133043 37 5 0.0 10.0 0.00 0.00 0.00 67 1001.7
20260509131540 37 237 1.0 5.0 0.00 0.00 0.00 68 1001.5
20260509130041 37 5 0.0 5.0 0.00 0.00 0.00 66 1001.0
20260509124541 37 10 1.0 6.0 0.00 0.00 0.00 67 1000.8
20260509123034 37 26 1.0 5.0 0.00 0.00 0.00 69 1000.6
20260509121533 36 331 0.0 4.0 0.00 0.00 0.00 70 1000.4
20260509120027 35 265 0.0 3.0 0.00 0.00 0.00 72 1000.4
20260509114524 34 315 0.0 3.0 0.00 0.00 0.00 75 1000.2
20260509113026 34 38 0.0 2.0 0.00 0.00 0.00 75 999.9
20260509111523 33 9 0.0 0.0 0.00 0.00 0.00 76 999.8
20260509110022 33 338 0.0 1.0 0.00 0.00 0.00 77 999.9
20260509104520 32 297 0.0 4.0 0.00 0.00 0.00 78 999.9
20260509103021 31 309 0.0 3.0 0.00 0.00 0.00 83 999.9
20260509101524 31 157 0.0 1.0 0.00 0.00 0.00 87 999.9
20260509100024 29 157 0.0 2.0 0.00 0.00 0.00 90 999.7
20260509094518 29 101 0.0 0.0 0.00 0.00 0.00 91 999.6
20260509093017 29 101 0.0 0.0 0.00 0.00 0.00 92 999.6
20260509091516 29 101 0.0 0.0 0.00 0.00 0.00 92 999.6
20260509090031 29 101 0.0 0.0 0.00 0.00 0.00 93 999.5
20260509084516 28 101 0.0 0.0 0.00 0.00 0.00 92 999.4
20260509083029 29 101 0.0 0.0 0.00 0.00 0.00 92 999.2